Date String (YYYY-MM-DD hh:mm:ss) UTC,Instrument flags,Ambient pressure (hPa),Sample flow (lpm),Bypass flow (lpm),Sample temperature (°C),Ambient temperature (°C),ASC tube jacket temperature (°C),LED temperature (°C),Box temperature (°C),Sample RH (%),Span deviation,Mass concentration (μg/m³),Mass concentration (μg/m³),Mass concentration (μg/m³)
DateTimeUTC,F1_M11,P_M11,Q1_M11,Q2_M11,T1_M11,T2_M11,T3_M11,T4_M11,T5_M11,U1_M11,ZSPAN_M11,X0_M11,X2_M11,X1_M11
2021-11-14 23:00:00,,0825.5,5.00,0.00,27.3,26.6,00.0,36.2,29.2,12.8,0000.0,0001.53,0000.64,0000.41
2021-11-14 23:01:00,,0825.5,4.99,0.00,27.3,26.6,00.0,36.2,29.2,12.7,0000.0,0001.45,0000.61,0000.41
2021-11-14 23:02:00,,0825.5,5.00,0.00,27.3,26.6,00.0,36.2,29.2,12.7,0000.0,0001.45,0000.61,0000.40
2021-11-14 23:03:00,,0825.4,5.01,0.00,27.3,26.6,00.0,36.3,29.2,12.6,0000.0,0001.43,0000.60,0000.40
2021-11-14 23:04:00,,0825.5,5.00,0.00,27.4,26.6,00.0,36.3,29.2,12.7,0000.0,0001.41,0000.60,0000.40
2021-11-14 23:05:00,,0825.5,4.99,0.00,27.4,26.6,00.0,36.3,29.2,12.7,0000.0,0001.33,0000.58,0000.41
2021-11-14 23:06:00,,0825.6,5.00,0.00,27.4,26.6,00.0,36.3,29.2,12.8,0000.0,0001.32,0000.58,0000.41
2021-11-14 23:07:00,,0825.6,5.01,0.00,27.4,26.6,00.0,36.3,29.2,12.8,0000.0,0001.27,0000.56,0000.41
2021-11-14 23:08:00,,0825.6,5.00,0.00,27.4,26.6,00.0,36.3,29.2,12.8,0000.0,0001.21,0000.58,0000.40
2021-11-14 23:09:00,,0825.5,5.00,0.00,27.4,26.7,00.0,36.3,29.2,12.7,0000.0,0000.89,0000.55,0000.40
2021-11-14 23:10:00,,0825.6,5.00,0.00,27.4,26.7,00.0,36.3,29.3,12.7,0000.0,0000.90,0000.56,0000.39
2021-11-14 23:11:00,,0825.5,5.01,0.00,27.5,26.7,00.0,36.4,29.3,12.7,0000.0,0000.97,0000.58,0000.39
2021-11-14 23:12:00,,0825.5,5.00,0.00,27.5,26.7,00.0,36.4,29.3,12.7,0000.0,0000.97,0000.59,0000.40
2021-11-14 23:13:00,,0825.5,4.99,0.00,27.5,26.7,00.0,36.4,29.3,12.7,0000.0,0000.97,0000.59,0000.40
2021-11-14 23:14:00,,0825.5,5.00,0.00,27.5,26.7,00.0,36.4,29.3,12.7,0000.0,0000.98,0000.59,0000.40
2021-11-14 23:15:00,,0825.5,5.01,0.00,27.5,26.7,00.0,36.4,29.3,12.7,0000.0,0001.04,0000.61,0000.40
2021-11-14 23:16:00,,0825.5,5.01,0.00,27.5,26.7,00.0,36.4,29.3,12.6,0000.0,0001.05,0000.62,0000.40
2021-11-14 23:17:00,,0825.4,4.99,0.00,27.5,26.7,00.0,36.4,29.3,12.6,0000.0,0001.19,0000.63,0000.40
2021-11-14 23:18:00,,0825.4,5.01,0.00,27.5,26.7,00.0,36.4,29.4,12.6,0000.0,0001.29,0000.65,0000.39
2021-11-14 23:19:00,,0825.5,5.00,0.00,27.5,26.7,00.0,36.4,29.4,12.5,0000.0,0001.33,0000.65,0000.39
2021-11-14 23:20:00,,0825.4,5.01,0.00,27.5,26.7,00.0,36.5,29.4,12.5,0000.0,0001.36,0000.66,0000.39
2021-11-14 23:21:00,,0825.4,4.99,0.00,27.5,26.7,00.0,36.5,29.3,12.5,0000.0,0001.36,0000.66,0000.40
2021-11-14 23:22:00,,0825.4,5.01,0.00,27.5,26.7,00.0,36.5,29.3,12.5,0000.0,0001.37,0000.65,0000.39
2021-11-14 23:23:00,,0825.4,5.00,0.00,27.5,26.7,00.0,36.5,29.3,12.5,0000.0,0001.39,0000.64,0000.38
2021-11-14 23:24:00,,0825.5,5.00,0.00,27.5,26.7,00.0,36.5,29.3,12.5,0000.0,0001.56,0000.67,0000.38
2021-11-14 23:25:00,,0825.4,5.00,0.00,27.5,26.7,00.0,36.5,29.3,12.5,0000.0,0001.71,0000.68,0000.37
2021-11-14 23:26:00,,0825.5,4.98,0.00,27.5,26.7,00.0,36.5,29.3,12.5,0000.0,0001.70,0000.68,0000.36
2021-11-14 23:27:00,,0825.3,5.01,0.00,27.5,26.7,00.0,36.5,29.3,12.5,0000.0,0001.96,0000.71,0000.35
2021-11-14 23:28:00,,0825.3,5.00,0.00,27.5,26.7,00.0,36.5,29.4,12.5,0000.0,0001.92,0000.70,0000.35
2021-11-14 23:29:00,,0825.4,5.00,0.00,27.5,26.7,00.0,36.5,29.4,12.5,0000.0,0001.81,0000.67,0000.35
2021-11-14 23:30:00,,0825.4,4.99,0.00,27.5,26.7,00.0,36.5,29.3,12.5,0000.0,0001.69,0000.63,0000.35
2021-11-14 23:31:00,,0825.4,5.00,0.00,27.5,26.7,00.0,36.5,29.3,12.5,0000.0,0001.65,0000.62,0000.35
2021-11-14 23:32:00,,0825.4,5.00,0.00,27.5,26.7,00.0,36.5,29.3,12.5,0000.0,0001.60,0000.61,0000.34
2021-11-14 23:33:00,,0825.5,5.01,0.00,27.5,26.7,00.0,36.5,29.3,12.5,0000.0,0001.52,0000.60,0000.34
2021-11-14 23:34:00,,0825.4,5.00,0.00,27.5,26.7,00.0,36.5,29.3,12.5,0000.0,0001.51,0000.58,0000.34
2021-11-14 23:35:00,,0825.4,5.00,0.00,27.5,26.7,00.0,36.5,29.3,12.4,0000.0,0001.48,0000.58,0000.34
2021-11-14 23:36:00,,0825.5,5.01,0.00,27.5,26.7,00.0,36.5,29.3,12.4,0000.0,0001.41,0000.60,0000.34
2021-11-14 23:37:00,,0825.4,5.00,0.00,27.6,26.7,00.0,36.5,29.3,12.4,0000.0,0001.35,0000.59,0000.34
2021-11-14 23:38:00,,0825.4,5.00,0.00,27.6,26.7,00.0,36.5,29.4,12.4,0000.0,0001.09,0000.55,0000.34
2021-11-14 23:39:00,,0825.4,5.01,0.00,27.6,26.7,00.0,36.5,29.3,12.4,0000.0,0001.00,0000.53,0000.34
2021-11-14 23:40:00,,0825.4,5.00,0.00,27.6,26.7,00.0,36.5,29.4,12.4,0000.0,0001.05,0000.55,0000.33
2021-11-14 23:41:00,,0825.4,5.01,0.00,27.6,26.7,00.0,36.5,29.4,12.5,0000.0,0001.12,0000.57,0000.33
2021-11-14 23:42:00,,0825.4,4.99,0.00,27.6,26.7,00.0,36.5,29.4,12.5,0000.0,0001.21,0000.59,0000.32
2021-11-14 23:43:00,,0825.3,4.99,0.00,27.6,26.7,00.0,36.6,29.4,12.4,0000.0,0001.28,0000.60,0000.32
2021-11-14 23:44:00,,0825.3,5.01,0.00,27.6,26.7,00.0,36.6,29.4,12.5,0000.0,0001.35,0000.62,0000.32
2021-11-14 23:45:00,,0825.2,4.99,0.00,27.6,26.7,00.0,36.6,29.4,12.5,0000.0,0001.57,0000.68,0000.33
2021-11-14 23:46:00,,0825.3,5.00,0.00,27.6,26.6,00.0,36.6,29.4,12.5,0000.0,0001.53,0000.69,0000.33
2021-11-14 23:47:00,,0825.3,5.00,0.00,27.6,26.6,00.0,36.6,29.4,12.5,0000.0,0001.62,0000.67,0000.34
2021-11-14 23:48:00,,0825.2,5.00,0.00,27.6,26.6,00.0,36.6,29.4,12.5,0000.0,0001.91,0000.70,0000.33
2021-11-14 23:49:00,,0825.2,5.00,0.00,27.6,26.6,00.0,36.5,29.4,12.6,0000.0,0001.97,0000.71,0000.33
2021-11-14 23:50:00,,0825.2,4.99,0.00,27.6,26.6,00.0,36.5,29.3,12.6,0000.0,0002.59,0000.73,0000.32
2021-11-14 23:51:00,,0825.2,5.00,0.00,27.5,26.6,00.0,36.6,29.3,12.7,0000.0,0002.57,0000.73,0000.32
2021-11-14 23:52:00,,0825.2,5.00,0.00,27.5,26.6,00.0,36.6,29.3,12.7,0000.0,0002.56,0000.73,0000.33
2021-11-14 23:53:00,,0825.1,5.01,0.00,27.5,26.6,00.0,36.5,29.3,12.7,0000.0,0002.50,0000.73,0000.33
2021-11-14 23:54:00,,0825.0,4.99,0.00,27.5,26.6,00.0,36.5,29.3,12.6,0000.0,0002.45,0000.71,0000.33
2021-11-14 23:55:00,,0825.0,5.00,0.00,27.5,26.6,00.0,36.5,29.3,12.7,0000.0,0002.35,0000.69,0000.33
2021-11-14 23:56:00,,0825.0,5.00,0.00,27.5,26.6,00.0,36.5,29.4,12.7,0000.0,0002.24,0000.69,0000.33
2021-11-14 23:57:00,,0825.0,5.01,0.00,27.5,26.6,00.0,36.5,29.4,12.8,0000.0,0002.28,0000.69,0000.33
2021-11-14 23:58:00,,0825.0,4.99,0.00,27.5,26.6,00.0,36.5,29.4,12.8,0000.0,0002.14,0000.69,0000.32
2021-11-14 23:59:00,,0825.0,5.00,0.00,27.5,26.6,00.0,36.5,29.4,12.8,0000.0,0002.00,0000.70,0000.33
